Change the Weather History Date:

Saturday, November 16, 2013

  Actual Average (KOMA) Record (KOMA)
Temperature  
Mean Temperature 51 °F 39 °F  
Max Temperature 64 °F 49 °F 73 °F (1954)
Min Temperature 37 °F 29 °F 3 °F (1959)
Degree Days  
Heating Degree Days 14 26  
Month to date heating degree days 358  
Since 1 July heating degree days 843  
Cooling Degree Days 0 0  
Month to date cooling degree days 0  
Year to date cooling degree days 1112  
Growing Degree Days 1 (Base 50)    
Moisture  
Dew Point 41 °F    
Average Humidity 71    
Maximum Humidity 91    
Minimum Humidity 36    
Precipitation  
Precipitation 0.00 in 0.06 in 1.38 in (1996)
Month to date precipitation 0.94  
Year to date precipitation 28.88  
Snow  
Snow 0.00 in 0.10 in - ()
Month to date snowfall 0.7  
Since 1 July snowfall 1.0  
Snow Depth -    
Sea Level Pressure  
Sea Level Pressure 29.40 in    
Wind  
Wind Speed 8 mph (South)    
Max Wind Speed 16 mph    
Max Gust Speed 25 mph    
Visibility 9 miles    
Events      
T = Trace of Precipitation, MM = Missing Value Source: NWS Daily Summary

Daily Weather History Graph

Daily Weather History Graph

Search for Another Location

Airport or City:

Trip Planner

Search our weather history database for the weather conditions in past years. The results will help you decide how hot, cold, wet, or windy it might be!

Date:

Astronomy

Nov. 16, 2013 Rise Set
Actual Time 7:13 AM CST 5:04 PM CST
Civil Twilight 6:44 AM CST 5:33 PM CST
Nautical Twilight 6:10 AM CST 6:07 PM CST
Astronomical Twilight 5:38 AM CST 6:39 PM CST
Moon 4:40 PM CST (11/16) 6:10 AM CST (11/16)
Length of Visible Light 10h 49m
Length of Day
9h 50m
Waxing Gibbous, 99% of the Moon is Illuminated
Nov 16
Waxing Gibbous
Nov 17
Full
Nov 25
Last Quarter
Dec 2
New
Dec 9
First Quarter

Hourly Weather History & Observations

Time (CST) Temp. Windchill Dew Point Humidity Pressure Visibility Wind Dir Wind Speed Gust Speed Precip Events Conditions
12:15 AM 45.5 °F 41.3 °F 41.0 °F 84% 29.60 in 10.0 mi SE 8.1 mph - N/A   Clear
12:35 AM 45.7 °F 42.0 °F 41.4 °F 85% 29.59 in 10.0 mi SE 6.9 mph - N/A   Clear
12:55 AM 44.6 °F 40.2 °F 40.8 °F 87% 29.58 in 10.0 mi SE 8.1 mph - N/A   Clear
1:15 AM 45.0 °F 41.8 °F 41.2 °F 87% 29.58 in 10.0 mi SE 5.8 mph - N/A   Clear
1:35 AM 44.6 °F 40.2 °F 41.2 °F 88% 29.57 in 10.0 mi SE 8.1 mph - N/A   Clear
1:55 AM 44.6 °F 40.2 °F 41.5 °F 89% 29.56 in 10.0 mi SE 8.1 mph - N/A   Clear
2:15 AM 45.1 °F 40.8 °F 41.9 °F 88% 29.54 in 10.0 mi SE 8.1 mph - N/A   Clear
2:35 AM 45.0 °F 40.6 °F 41.9 °F 89% 29.53 in 10.0 mi SE 8.1 mph - N/A   Clear
2:55 AM 45.7 °F 41.0 °F 42.6 °F 89% 29.52 in 10.0 mi SE 9.2 mph - N/A   Clear
3:15 AM 45.7 °F 42.0 °F 42.8 °F 90% 29.51 in 10.0 mi SE 6.9 mph - N/A   Clear
3:35 AM 45.5 °F 41.8 °F 42.6 °F 90% 29.51 in 10.0 mi SE 6.9 mph - N/A   Clear
3:55 AM 45.5 °F 40.8 °F 42.8 °F 90% 29.49 in 7.0 mi SE 9.2 mph - N/A   Clear
4:15 AM 45.5 °F 40.8 °F 42.8 °F 90% 29.48 in 7.0 mi SE 9.2 mph - N/A   Clear
4:35 AM 45.5 °F 40.3 °F 42.8 °F 90% 29.46 in 7.0 mi SE 10.4 mph - N/A   Clear
4:55 AM 45.5 °F 40.3 °F 42.8 °F 90% 29.45 in 7.0 mi SE 10.4 mph - N/A   Scattered Clouds
5:15 AM 45.9 °F 41.2 °F 43.3 °F 91% 29.44 in 7.0 mi SE 9.2 mph - N/A   Scattered Clouds
5:35 AM 46.4 °F 41.1 °F 43.9 °F 91% 29.42 in 7.0 mi SE 11.5 mph - N/A   Mostly Cloudy
5:55 AM 46.9 °F - 44.4 °F 91% 29.40 in 7.0 mi SE 10.4 mph - N/A   Overcast
6:15 AM 48.0 °F - 45.3 °F 90% 29.40 in 7.0 mi SE 10.4 mph - N/A   Overcast
6:35 AM 48.7 °F - 45.9 °F 90% 29.39 in 7.0 mi SE 10.4 mph - N/A   Overcast
6:55 AM 49.3 °F - 46.4 °F 90% 29.38 in 7.0 mi SE 8.1 mph - N/A   Overcast
7:15 AM 49.8 °F - 46.8 °F 89% 29.37 in 7.0 mi SE 11.5 mph 17.3 mph N/A   Overcast
7:35 AM 50.9 °F - 47.7 °F 89% 29.36 in 7.0 mi SE 12.7 mph - N/A   Mostly Cloudy
7:55 AM 51.6 °F - 48.4 °F 89% 29.36 in 7.0 mi SSE 12.7 mph 19.6 mph N/A   Scattered Clouds
8:15 AM 52.7 °F - 49.1 °F 88% 29.36 in 7.0 mi SSE 11.5 mph - N/A   Scattered Clouds
8:35 AM 54.5 °F - 50.4 °F 86% 29.35 in 10.0 mi SSE 11.5 mph - N/A   Scattered Clouds
8:55 AM 55.4 °F - 50.9 °F 85% 29.36 in 10.0 mi SSE 8.1 mph 16.1 mph N/A   Clear
9:15 AM 56.8 °F - 51.3 °F 82% 29.36 in 10.0 mi SSE 11.5 mph 16.1 mph N/A   Clear
9:35 AM 58.1 °F - 51.4 °F 78% 29.35 in 10.0 mi South 9.2 mph 16.1 mph N/A   Clear
9:55 AM 59.0 °F - 51.6 °F 76% 29.34 in 10.0 mi South 10.4 mph 17.3 mph N/A   Scattered Clouds
10:15 AM 60.8 °F - 49.8 °F 67% 29.32 in 10.0 mi South 16.1 mph 25.3 mph N/A   Scattered Clouds
10:35 AM 60.8 °F - 49.1 °F 65% 29.34 in 10.0 mi SSW 9.2 mph 18.4 mph N/A   Scattered Clouds
10:55 AM 60.8 °F - 48.7 °F 64% 29.34 in 10.0 mi SSW 13.8 mph 21.9 mph N/A   Mostly Cloudy
11:15 AM 61.9 °F - 48.2 °F 61% 29.33 in 10.0 mi South 13.8 mph 19.6 mph N/A   Scattered Clouds
11:35 AM 62.6 °F - 47.8 °F 58% 29.33 in 10.0 mi SSW 13.8 mph 25.3 mph N/A   Scattered Clouds
11:55 AM 63.0 °F - 45.5 °F 53% 29.32 in 10.0 mi SSW 11.5 mph 25.3 mph N/A   Scattered Clouds
12:15 PM 62.6 °F - 44.6 °F 52% 29.31 in 10.0 mi SSW 11.5 mph 18.4 mph N/A   Clear
12:35 PM 62.6 °F - 43.3 °F 49% 29.32 in 10.0 mi SSW 12.7 mph 20.7 mph N/A   Clear
12:55 PM 61.9 °F - 40.3 °F 45% 29.32 in 10.0 mi WSW 9.2 mph 21.9 mph N/A   Clear
1:15 PM 61.7 °F - 40.8 °F 46% 29.33 in 10.0 mi WSW 12.7 mph 20.7 mph N/A   Clear
1:35 PM 62.6 °F - 39.4 °F 42% 29.33 in 10.0 mi SSW 12.7 mph 17.3 mph N/A   Clear
1:55 PM 63.3 °F - 37.4 °F 38% 29.33 in 10.0 mi WSW 12.7 mph 17.3 mph N/A   Clear
2:15 PM 63.5 °F - 37.6 °F 38% 29.34 in 10.0 mi WSW 8.1 mph 17.3 mph N/A   Clear
2:35 PM 64.0 °F - 37.2 °F 37% 29.34 in 10.0 mi SW 9.2 mph 21.9 mph N/A   Clear
2:55 PM 64.0 °F - 36.9 °F 37% 29.34 in 10.0 mi WSW 15.0 mph 20.7 mph N/A   Clear
3:15 PM 64.4 °F - 37.2 °F 37% 29.34 in 10.0 mi SW 11.5 mph 17.3 mph N/A   Clear
3:35 PM 63.7 °F - 36.3 °F 36% 29.34 in 10.0 mi WSW 9.2 mph 16.1 mph N/A   Clear
3:55 PM 63.3 °F - 35.6 °F 36% 29.35 in 10.0 mi WSW 8.1 mph - N/A   Clear
4:15 PM 63.0 °F - 35.2 °F 36% 29.35 in 10.0 mi SW 6.9 mph - N/A   Clear
4:35 PM 61.9 °F - 34.9 °F 36% 29.36 in 10.0 mi SW 4.6 mph - N/A   Clear
4:55 PM 60.8 °F - 34.3 °F 37% 29.37 in 10.0 mi SW 3.5 mph - N/A   Clear
5:15 PM 59.7 °F - 34.2 °F 38% 29.38 in 10.0 mi Calm Calm - N/A   Clear
5:35 PM 58.1 °F - 34.2 °F 41% 29.40 in 10.0 mi Calm Calm - N/A   Clear
5:55 PM 52.3 °F - 34.5 °F 51% 29.40 in 10.0 mi Calm Calm - N/A   Clear
6:15 PM 49.1 °F - 35.1 °F 58% 29.41 in 10.0 mi Calm Calm - N/A   Clear
6:35 PM 46.6 °F - 34.9 °F 64% 29.42 in 10.0 mi Calm Calm - N/A   Clear
6:55 PM 45.1 °F - 35.1 °F 68% 29.42 in 10.0 mi Calm Calm - N/A   Clear
7:15 PM 44.4 °F - 34.3 °F 68% 29.42 in 10.0 mi Calm Calm - N/A   Clear
7:35 PM 43.5 °F - 34.3 °F 70% 29.41 in 10.0 mi Calm Calm - N/A   Clear
7:55 PM 42.1 °F - 33.8 °F 72% 29.40 in 10.0 mi Calm Calm - N/A   Clear
8:15 PM 40.8 °F - 33.3 °F 74% 29.39 in 10.0 mi Calm Calm - N/A   Clear
8:35 PM 41.9 °F - 33.8 °F 73% 29.39 in 10.0 mi Calm Calm - N/A   Clear
8:55 PM 40.1 °F - 34.0 °F 79% 29.40 in 10.0 mi Calm Calm - N/A   Clear
9:15 PM 39.0 °F - 34.9 °F 85% 29.40 in 10.0 mi Calm Calm - N/A   Clear
9:35 PM 39.6 °F - 34.5 °F 82% 29.40 in 10.0 mi Calm Calm - N/A   Scattered Clouds
9:55 PM 39.6 °F - 32.9 °F 77% 29.40 in 10.0 mi Calm Calm - N/A   Scattered Clouds
10:15 PM 38.7 °F - 34.5 °F 85% 29.39 in 10.0 mi Calm Calm - N/A   Scattered Clouds
10:35 PM 39.6 °F - 33.3 °F 78% 29.39 in 10.0 mi Calm Calm - N/A   Scattered Clouds
10:55 PM 39.6 °F - 33.1 °F 78% 29.40 in 10.0 mi Calm Calm - N/A   Clear
11:15 PM 39.2 °F - 33.6 °F 80% 29.40 in 10.0 mi Calm Calm - N/A   Mostly Cloudy
11:35 PM 39.0 °F - 35.1 °F 86% 29.39 in 10.0 mi Calm Calm - N/A   Mostly Cloudy
11:55 PM 37.8 °F - 34.9 °F 89% 29.38 in 10.0 mi Calm Calm - N/A   Scattered Clouds